Карточка аэропорта USTR

Внимание!
Информация на этой странице в стадии наполнения.
Если вы не увидели какой-то информации, или заметили неточность - пожалуйста сообщите нам!
Спасибо!
Команда RU-STAFF
Название аэропортаРощино
Название аэропорта (англ.)Roshschino
Превышение378 ft. (115.2 m.)
Координаты57°10.098', 65°19.002'
Высота перехода3000ft
Эшелон переходаQNH⩾1013hPa:FL040; QNH⩾977hPa:FL050; QNH⩽977hPa:FL060
Коды ответчика5101-5137
Зона ОрВДТюмень РПИ (USTV)
Данные METARUSTR 160930Z 02006MPS 9999 FEW025CB BKN049 21/14 Q1014 R03/090065 R30/090065 TEMPO 02006G14MPS
Проноз погоды (TAF)USTR 160735Z 1609/1709 02006G14MPS 9999 BKN020CB TEMPO 1609/1612 02015MPS -SHRA BECMG 1615/1616 35003G08MPS SCT020 BECMG 1702/1703 35006G14MPS TEMPO 1706/1709 01015MPS
NOTAMshow/hide NOTAM
AWOS   TABLE

Информация о ВПП

ВПП Длина ВПП (м.) Покрытие Курс ВПП Частота ILS
033003Асфальтобетон34108.3
122704Асфальтобетон121 
213003Асфальтобетон214110.7
302704Асфальтобетон301 

Диспетчерские позиции

Позывной Наименование органа УВД Частота
USTR_R_APPТюмень-Круг126.100
USTR_GNDТюмень-Руление119.000
USTR_TWRТюмень-Старт118.200



Спутниковое изображение